Home   Weather   42°22'N, 83°25'W   Past weeks
Flag for USA

Past Weather in 42°22'N, 83°25'W, USA — Yesterday and Last 2 Weeks

Now
78 °F

Passing clouds.


Feels Like: 80 °F
Forecast: 75 / 59 °F
Wind: 21 mph from Southwest

Location: Detroit City Airport

Current Time: May 19, 2019 at 2:39:29 pm

Latest Report: May 19, 2019 at 1:53 pm


Visibility: 10 mi

Pressure: 29.69 "Hg

Humidity: 58%

Dew Point: 62 °F

Location of 42°22'N, 83°25'WLocation

Past Weather in 42°22'N, 83°25'W — Graph

°F

42°22'N, 83°25'W Temperature Yesterday

Maximum temperature yesterday: 68 °F (at 5:53 pm)
Minimum temperature yesterday: 48 °F (at 7:53 am)
Average temperature yesterday: 57 °F

High & Low Weather Summary for the Past Weeks

 TemperatureHumidityPressure
High77 °F (May 19, 10:53 am)97% (May 13, 12:53 am)30.32 "Hg (May 13, 12:53 am)
Low39 °F (May 11, 5:53 am)27% (May 14, 6:53 pm)29.68 "Hg (May 17, 12:53 am)
Average55 °F67%29.94 "Hg
* Reported May 4 12:53 pm — May 19 12:53 pm, 42°22'N, 83°25'W. Weather by CustomWeather, © 2019

Note: Actual official high and low records may vary slightly from our data, if they occured in-between our weather recording intervals... More about our weather records

Advertising

42°22'N, 83°25'W Weather History for the Previous 24 Hours

Scroll right to see more
 ConditionsComfort  
Time TempWeatherWind HumidityBarometerVisibility
12:53 pm
Sun, May 19
77 °FMore clouds than sun.17 mph60%29.72 "Hg10 mi
11:53 am77 °FPartly sunny.14 mph62%29.73 "Hg10 mi
10:53 am77 °FSunny.18 mph62%29.74 "Hg10 mi
9:53 am76 °FSunny.14 mph64%29.76 "Hg10 mi
8:53 am71 °FPassing clouds.8 mph73%29.77 "Hg10 mi
7:53 am61 °FSunny.5 mph83%29.78 "Hg10 mi
6:53 am55 °FPassing clouds.No wind90%29.79 "Hg7 mi
5:53 am54 °FClear.No wind90%29.80 "Hg9 mi
4:53 am53 °FPassing clouds.5 mph89%29.81 "Hg9 mi
3:53 am53 °FPassing clouds.5 mph89%29.80 "Hg9 mi
2:53 am55 °FPassing clouds.3 mph87%29.83 "Hg10 mi
1:53 am55 °FClear.No wind87%29.82 "Hg10 mi
12:53 am55 °FClear.No wind87%29.83 "Hg10 mi
11:53 pm
Sat, May 18
57 °FClear.No wind81%29.83 "Hg10 mi
10:53 pm57 °FClear.6 mph81%29.82 "Hg10 mi
9:53 pm59 °FClear.7 mph78%29.82 "Hg10 mi
8:53 pm61 °FClear.7 mph78%29.83 "Hg10 mi
7:53 pm65 °FSunny.10 mph73%29.84 "Hg10 mi
6:53 pm68 °FSunny.7 mph70%29.84 "Hg10 mi
5:53 pm68 °FSunny.5 mph68%29.85 "Hg10 mi
4:53 pm66 °FSunny.8 mph70%29.88 "Hg10 mi
3:53 pm64 °FSunny.8 mph70%29.90 "Hg10 mi
3:31 pm63 °FScattered clouds.8 mph70%29.92 "Hg10 mi
2:53 pm62 °FOvercast.8 mph70%29.93 "Hg10 mi
Weather by CustomWeather, © 2019

See weather overview